Simultaneous Nadir Overpasses (SNOs) Predictions

Prediction of SNOs between GOES-16 and AQUA Satellite Orbit:

Table of predicted SNOs for the next 14.0 days since TLE Epoch: 12/17/2023
Index Date Time (GOES-16) GOES-16 Lat,Lon AQUA Lat,Lon Distance(km) Time Diff (sec)
1 12/17/2023 06:50:55 -0.01, -75.22 -0.41, -73.46 200.48 80
2 12/17/2023 19:11:32 0.02, -75.23 -0.68, -78.45 366.60 80
3 12/19/2023 18:59:00 0.02, -75.25 0.10, -74.74 57.88 80
4 12/21/2023 18:43:48 0.01, -75.28 0.91, -71.03 483.20 80
5 12/22/2023 07:04:17 -0.01, -75.28 0.14, -75.99 80.23 80
6 12/24/2023 06:46:24 -0.00, -75.31 -0.65, -72.27 345.93 80
7 12/24/2023 19:07:01 0.00, -75.32 -0.41, -77.26 220.55 80
8 12/26/2023 18:54:27 -0.01, -75.35 0.36, -73.53 206.45 80
9 12/27/2023 07:14:55 0.01, -75.36 0.68, -78.50 356.28 80
10 12/29/2023 06:57:01 0.01, -75.41 -0.12, -74.78 71.48 80
11 12/29/2023 19:17:37 -0.00, -75.42 -0.97, -79.76 494.75 80
